RH
16 13 12 10 11 9 13 15 14 14 11 6 5 5 6 6 5 4 5 4 3 6 29 54 38 29 22 22 25 35 50 43 47 43 39 34 28 15 14 12 8 6 6 6 8 8 5 3 2
18 18 14 12 11 8 20 20 19 18 14 12 9 7 6 7 8 5 5 4 3 4 18 42 52 41 28 23 25 30 46 48 46 46 41 36 30 24 10 10 9 6 6 6 7 11 6 4 2
17 18 20 14 9 10 25 24 22 18 16 14 12 10 9 8 7 7 5 5 4 4 8 58 67 63 39 30 26 28 36 50 46 47 44 39 34 30 20 8 8 6 6 7 7 12 9 6 4
29 23 21 15 11 22 35 33 26 19 18 15 14 11 11 10 8 7 8 5 4 4 5 20 60 68 57 32 26 28 33 45 48 48 48 43 38 34 27 13 7 6 7 7 7 11 15 12 5
55 43 28 19 18 29 41 39 32 26 23 20 16 13 12 11 11 9 8 10 6 5 6 7 24 68 64 48 30 25 29 45 52 48 53 50 44 37 32 23 8 7 8 7 6 9 14 15 9
41 56 49 36 29 40 37 52 45 34 27 22 18 15 13 12 10 42 19 10 13 6 4 4 3 13 56 60 39 30 26 41 57 52 51 53 49 42 35 28 17 8 9 7 6 7 11 14 14
8 12 34 49 48 40 52 54 43 40 33 31 20 18 15 13 12 11 67 41 22 17 6 4 9 7 13 49 46 33 32 34 56 58 49 48 48 48 40 34 26 18 12 8 8 8 10 14 16
9 8 8 13 44 52 58 55 47 40 43 41 32 24 19 15 13 11 28 63 44 30 33 11 18 20 34 35 39 43 34 37 57 62 54 49 48 47 48 39 34 29 15 10 9 10 11 14 16
13 10 8 8 15 42 62 52 51 43 40 42 38 33 26 20 16 13 11 25 74 46 34 15 26 50 31 43 60 60 39 38 48 66 62 54 51 46 49 46 39 31 21 15 12 11 12 14 16
16 13 13 19 14 16 45 57 61 46 40 47 44 37 31 25 21 19 16 14 17 31 15 11 7 20 31 31 38 65 65 41 41 62 71 60 57 50 49 49 44 36 26 16 14 13 13 13 14
18 16 18 22 20 15 24 47 54 59 46 47 49 45 39 32 26 23 20 19 16 13 11 10 10 7 5 20 40 53 58 71 42 44 71 71 60 55 50 52 49 40 29 23 18 15 15 16 16
20 21 20 22 31 28 22 37 50 49 52 53 53 52 46 41 35 30 27 22 19 17 14 14 13 10 7 5 29 55 63 79 68 43 62 77 66 60 54 56 53 47 39 28 22 20 18 17 16
23 24 33 37 35 31 24 21 44 48 50 60 55 50 49 42 38 36 34 32 25 21 18 17 16 16 9 4 5 39 54 67 81 57 48 72 73 71 64 63 56 53 50 41 28 21 20 20 20
24 20 25 30 31 27 25 31 25 37 52 52 57 56 50 45 39 37 34 35 32 25 22 20 19 19 16 7 5 16 57 80 81 76 56 62 78 76 78 93 60 53 54 49 42 34 28 27 25
24 32 46 41 35 28 22 22 28 31 34 38 43 49 55 51 46 36 34 33 37 33 28 25 23 20 20 12 5 6 45 96 90 82 72 58 78 96 79 78 59 58 56 52 46 39 35 29 24
26 33 46 38 27 20 17 15 21 23 27 30 33 36 41 47 49 46 39 32 36 41 35 30 29 25 20 9 5 5 32 34 80 92 84 67 70 73 77 69 87 86 58 53 49 41 34 30 28
24 23 32 29 22 18 19 16 28 19 19 21 24 28 30 32 36 36 40 42 39 41 39 28 31 28 19 6 7 7 9 56 94 96 93 96 76 64 81 96 94 64 61 57 49 40 34 37 41
37 36 33 28 24 17 12 11 19 17 17 18 18 19 20 23 27 28 32 32 33 34 33 30 28 18 12 7 7 7 11 34 96 97 87 94 92 90 96 95 88 76 66 60 55 48 47 48 50
47 40 20 21 15 11 26 23 26 19 14 16 16 16 17 16 18 18 17 22 28 27 21 16 8 8 6 9 21 21 21 15 91 96 96 96 90 93 87 91 89 80 76 69 64 63 60 54 54
26 17 23 23 17 27 44 44 32 42 48 44 45 33 18 8 8 9 10 10 10 11 9 7 11 37 59 71 49 84 46 15 24 94 94 96 96 96 96 91 88 82 82 78 72 70 63 63 60
31 26 21 28 42 53 65 65 38 38 44 34 36 39 45 14 9 6 7 6 8 6 6 5 72 98 85 95 79 82 94 28 16 84 91 94 96 96 95 96 92 93 90 94 76 70 68 58 60
32 24 36 42 51 57 81 73 81 90 70 64 52 39 48 55 35 28 54 54 24 14 14 26 85 84 91 84 66 92 100 64 68 96 93 97 97 95 95 96 95 93 93 96 93 90 71 55 71
37 51 52 68 77 87 99 85 95 98 100 72 44 56 47 98 88 90 92 49 95 79 91 100 96 96 98 97 100 98 97 96 96 95 95 96 97 96 97 97 96 97 84 82 94 96 97 96 96
55 82 100 100 87 82 100 99 87 60 67 59 64 60 54 79 90 84 87 97 98 99 98 98 97 96 97 97 97 97 88 95 97 96 94 96 97 97 98 97 96 96 96 96 96 96 95 97 96
97 100 100 100 98 99 100 99 65 97 76 39 47 69 91 75 94 98 97 98 98 95 98 97 97 96 97 96 97 98 96 96 97 97 96 96 97 97 96 97 97 96 96 97 97 97 97 97 97
93 98 99 95 100 95 98 98 86 93 93 93 98 98 99 98 98 98 98 96 97 96 97 98 97 96 97 96 97 96 97 98 93 96 97 96 97 96 96 96 97 97 95 92 91 87 93 97 96
100 99 98 99 100 100 97 99 98 99 99 98 99 99 99 98 99 98 98 97 97 98 97 97 96 97 96 97 97 97 96 96 96 96 97 97 96 96 96 95 97 98 90 74 77 94 96 90 89
100 95 97 97 99 98 99 98 98 99 98 99 99 99 99 98 97 98 98 98 98 97 97 98 97 97 96 96 97 97 97 98 96 96 98 97 96 96 92 96 96 97 90 92 94 93 96 97 97
100 97 97 92 83 98 98 100 98 98 98 98 97 98 98 98 100 99 98 97 97 97 97 97 97 97 97 97 98 98 98 96 96 97 96 96 95 92 92 93 92 77 61 75 85 81 84 84 76
100 98 99 93 94 100 84 98 100 98 98 99 98 98 97 98 96 96 97 97 96 96 96 96 96 96 96 96 96 96 92 79 66 71 57 58 54 55 56 57 61 60 61 59 58 51 46 44 52
Wind_Speed
38 39 37 38 41 43 36 29 27 25 25 28 30 31 29 27 22 18 15 15 24 33 36 31 33 30 30 28 27 24 22 21 18 17 16 15 14 10 12 11 11 11 8 7 6 5 5 4 3
41 39 40 41 41 43 30 26 27 28 36 36 36 36 34 29 24 18 18 16 16 27 34 35 39 37 33 31 29 27 25 24 22 20 19 18 16 13 13 12 12 12 10 8 7 6 6 5 4
42 43 42 44 44 41 28 28 27 35 37 38 38 38 37 31 26 21 20 19 18 23 34 33 31 37 38 36 32 31 28 26 25 23 22 20 19 16 14 14 14 14 12 10 9 7 7 6 5
42 44 45 47 45 38 30 30 35 39 40 42 41 39 40 34 31 27 26 25 23 22 28 33 33 37 42 40 37 34 31 29 28 26 25 23 21 19 17 16 15 14 13 12 11 9 7 8 7
42 44 48 48 46 38 33 33 36 38 38 41 44 42 40 37 35 32 30 29 29 26 24 27 37 37 43 42 41 39 34 32 30 30 28 26 23 22 20 19 17 15 15 14 13 11 9 9 8
38 42 48 51 46 41 40 36 36 40 41 45 47 45 45 41 38 34 35 33 31 28 27 23 27 38 45 49 45 42 40 35 33 32 31 29 26 25 22 21 19 17 15 15 15 13 11 11 10
39 39 43 47 48 46 40 41 42 42 43 44 48 47 47 47 41 38 32 33 33 31 31 27 24 30 43 51 50 48 44 41 37 36 35 31 29 28 25 24 22 19 18 17 17 15 14 13 13
41 42 43 42 45 47 43 45 48 48 44 45 47 50 51 51 45 42 39 35 36 34 34 32 31 28 38 44 51 52 48 46 41 39 38 34 32 30 28 26 25 22 20 19 18 18 17 15 15
43 44 41 42 43 48 46 50 49 49 47 47 49 49 50 53 49 46 46 44 35 37 35 32 29 31 30 43 48 53 53 49 46 42 41 38 34 33 31 27 26 24 22 22 21 20 19 18 17
42 42 40 38 39 45 49 52 49 51 51 46 50 52 51 53 54 51 51 49 48 45 37 37 34 33 31 32 45 54 54 55 51 47 43 42 39 36 34 29 28 27 25 24 23 22 21 21 20
44 41 41 41 43 42 43 50 53 53 53 50 50 53 52 53 56 53 55 54 52 47 43 41 41 38 32 30 38 48 60 57 55 52 47 45 43 39 36 32 30 29 28 26 25 24 24 23 22
44 41 42 42 43 43 41 45 49 53 53 56 53 55 57 55 55 54 54 54 56 52 45 48 46 43 38 32 39 43 59 61 57 55 51 49 47 42 38 34 32 32 30 28 27 27 26 25 24
43 41 40 40 42 43 44 44 46 51 54 56 59 57 58 60 60 58 58 56 58 59 48 49 50 46 42 39 39 45 52 64 60 62 57 52 50 45 41 37 35 35 32 31 31 30 28 27 27
41 41 43 41 41 42 42 41 46 48 56 53 56 60 62 63 65 64 64 61 59 62 52 50 51 49 46 43 40 45 50 62 64 65 60 54 52 48 44 36 39 37 35 35 35 32 30 30 30
37 38 38 38 40 41 41 37 51 53 54 56 57 57 62 64 63 68 67 67 64 63 54 56 55 50 50 48 43 44 58 56 60 63 59 61 55 52 47 49 43 42 39 38 37 34 33 33 32
38 40 40 38 40 45 43 37 48 54 54 52 55 59 60 63 64 63 66 70 68 62 55 58 58 55 53 50 47 46 60 58 67 67 66 63 60 55 51 51 43 43 41 41 38 37 36 35 34
36 37 43 44 43 44 46 39 38 52 50 52 57 60 61 62 66 64 64 64 65 63 59 61 58 55 54 52 51 47 56 53 60 56 60 44 59 63 53 54 44 46 43 42 40 39 38 37 37
34 37 40 42 40 46 36 40 36 45 51 53 58 61 65 67 65 71 68 64 62 63 60 62 57 55 55 53 51 50 58 70 54 68 63 60 55 51 54 53 46 48 45 43 41 41 41 41 40
36 37 32 25 32 28 24 22 28 31 42 46 53 59 65 67 70 69 69 69 66 65 63 59 54 49 48 48 46 54 51 66 61 57 64 61 71 67 67 67 52 48 46 46 46 44 44 44 45
32 25 22 19 17 13 18 14 15 16 19 17 18 27 40 55 65 70 70 68 67 65 62 57 45 38 36 36 40 36 37 61 75 60 60 77 77 72 63 58 56 50 50 49 48 48 49 49 49
17 18 14 15 11 10 11 11 9 14 19 19 19 16 20 28 45 59 65 67 60 61 52 44 39 33 32 34 35 38 32 42 57 57 45 48 74 74 64 57 58 56 55 55 53 53 53 55 55
11 10 11 9 9 13 18 11 13 13 18 21 20 16 11 8 21 38 37 40 40 40 38 38 33 29 33 28 31 45 33 36 48 41 32 38 55 69 68 63 62 63 59 51 52 59 57 54 57
9 8 6 6 10 7 11 14 10 15 16 13 7 3 5 5 15 20 28 39 39 35 39 32 32 26 30 30 24 40 29 38 34 33 35 38 36 33 35 56 63 59 57 59 59 49 48 40 39
9 6 0 4 6 7 11 17 4 3 8 5 5 5 14 7 15 25 31 31 29 31 40 29 31 27 31 34 37 35 44 29 30 35 35 36 34 35 32 31 39 44 40 39 41 44 40 40 37
8 4 9 5 9 10 6 9 10 7 12 18 20 18 24 21 23 25 22 24 22 39 30 31 28 23 31 30 28 34 33 34 44 37 30 32 31 34 34 31 31 28 26 30 33 43 37 42 44
7 8 8 5 4 1 11 19 21 16 23 25 22 26 22 19 14 11 13 18 26 20 28 27 24 22 24 26 31 28 37 37 41 33 30 31 30 24 32 33 34 35 38 34 38 41 46 46 46
11 8 6 6 9 12 15 16 14 11 13 22 18 19 20 25 27 13 20 16 9 21 24 24 27 25 31 31 29 27 28 32 25 23 26 28 26 30 31 35 37 38 36 38 40 34 39 43 38
16 11 12 16 17 20 22 24 26 26 26 32 27 30 25 19 22 28 20 22 19 24 25 25 26 27 27 27 30 17 20 16 17 18 19 24 22 20 22 27 26 22 19 21 25 26 26 25 26
16 18 23 19 17 19 20 26 21 23 32 32 34 27 26 27 22 25 30 28 27 25 23 20 20 18 18 22 26 22 17 17 19 18 20 20 14 7 13 17 23 23 20 24 28 31 30 35 35
22 17 20 16 14 23 25 22 18 18 21 23 23 27 23 22 22 25 26 25 26 25 24 22 21 19 18 22 28 17 3 2 9 11 12 8 11 18 21 23 27 30 30 31 33 36 39 40 42
Wind_Direction
245 250 251 250 252 253 249 250 245 245 252 244 239 240 245 245 245 249 260 254 246 246 237 231 237 235 237 237 239 237 241 246 248 249 251 252 254 255 246 251 255 257 256 268 272 302 303 291 252
249 244 247 249 250 255 253 249 243 236 240 241 243 247 247 240 242 242 243 249 254 240 235 234 235 240 235 236 238 237 239 243 246 247 250 252 251 254 253 246 249 256 251 256 262 293 292 287 267
252 252 244 243 248 253 254 247 239 234 240 243 245 247 249 249 243 238 242 240 249 244 239 224 230 234 239 235 233 236 236 240 243 245 248 251 252 252 255 253 249 251 252 251 254 272 296 290 275
253 251 252 251 248 248 251 243 239 239 237 241 240 243 247 250 248 243 239 244 243 240 234 233 236 236 235 239 233 232 234 237 240 242 246 249 251 248 252 255 251 251 252 250 253 257 278 294 276
253 251 252 252 252 248 246 244 237 239 241 246 251 246 244 247 250 246 241 242 245 240 237 230 236 232 237 237 239 233 232 234 238 240 245 248 249 249 247 250 251 247 250 252 252 253 264 283 284
261 256 252 253 251 251 246 241 235 238 237 241 244 246 248 246 246 245 244 245 245 245 244 241 240 236 231 237 238 238 233 231 235 239 241 246 247 250 248 249 250 247 247 252 251 251 257 269 279
264 264 259 256 251 250 250 246 243 237 239 239 247 249 251 251 245 245 244 243 244 248 250 247 243 246 235 232 237 236 237 229 230 236 239 241 246 247 246 249 248 249 247 247 249 250 253 260 273
262 262 262 260 256 249 246 245 243 240 236 240 243 248 251 251 248 247 242 246 243 241 244 251 242 235 242 235 231 236 237 237 228 232 237 238 242 245 247 245 247 247 242 244 247 250 251 255 265
264 264 264 264 259 252 244 244 245 244 240 242 244 241 244 249 249 246 246 244 238 237 241 249 256 233 239 242 235 232 233 236 235 231 235 237 238 243 244 245 246 240 241 245 246 248 252 255 259
263 264 266 264 263 259 251 247 242 242 241 241 246 247 244 245 247 248 247 245 246 249 255 251 248 252 245 242 241 236 234 234 236 234 233 236 236 237 243 242 244 239 241 243 246 249 252 255 258
262 264 261 265 267 264 261 253 250 245 240 237 243 248 245 245 247 249 251 253 251 248 253 255 254 253 254 254 243 239 237 237 234 235 235 236 237 236 238 239 242 242 241 241 244 247 249 254 257
267 266 262 262 267 269 266 257 250 249 245 243 235 243 248 247 247 248 250 252 254 251 248 251 254 255 253 252 250 247 237 234 233 236 236 238 237 237 236 237 237 242 244 245 243 245 248 252 255
265 263 263 262 265 267 267 266 257 249 246 240 244 239 242 245 248 249 250 251 254 256 251 255 256 260 259 260 264 246 241 235 235 235 236 240 240 237 238 236 236 238 242 246 248 248 249 251 255
265 262 260 263 264 265 265 268 267 253 245 243 238 242 241 238 242 243 246 248 250 254 255 254 255 256 258 259 258 263 246 236 230 234 236 237 241 239 239 238 235 237 239 242 245 248 251 254 257
262 258 260 260 264 266 267 265 256 252 249 245 244 239 240 242 238 241 244 245 247 249 251 251 255 257 259 257 259 259 243 230 231 232 234 237 240 239 238 235 240 236 238 240 244 248 250 253 256
259 257 264 268 268 270 271 257 258 251 249 248 246 244 241 243 243 239 241 244 246 249 249 252 253 255 255 256 255 252 243 239 235 242 231 232 237 241 240 241 232 232 236 240 244 247 250 254 256
263 262 261 268 270 268 266 252 250 253 252 249 245 242 241 238 243 244 242 242 245 246 245 248 251 253 255 257 256 254 240 232 233 218 213 206 228 235 237 232 227 237 239 242 244 247 251 255 257
262 260 260 264 269 266 272 256 251 250 246 246 246 244 243 242 236 240 241 242 242 244 241 243 248 249 252 258 259 256 236 228 223 211 225 226 223 226 230 234 233 240 242 245 248 250 251 254 258
265 265 268 265 270 272 259 259 259 252 247 246 246 245 242 239 238 234 236 237 238 239 241 241 241 241 248 252 253 257 249 228 224 224 227 219 229 232 236 239 238 239 243 245 247 250 253 256 257
270 270 269 258 250 236 252 261 268 253 245 253 266 260 251 240 235 231 230 232 233 231 233 235 230 221 225 238 241 249 240 222 224 228 243 233 231 228 221 232 238 237 240 245 247 249 252 254 256
256 262 246 221 222 242 260 273 284 258 252 266 269 279 284 253 233 227 222 226 227 227 226 221 200 210 225 231 233 235 209 222 224 237 233 235 229 222 229 232 236 236 241 242 245 248 251 253 253
249 199 203 223 248 254 274 271 290 276 269 273 271 256 287 253 226 217 206 208 210 203 204 191 197 211 224 225 227 192 190 207 216 219 221 223 231 237 232 228 233 240 242 242 243 247 251 255 255
167 198 215 248 263 298 305 309 298 294 276 266 235 218 203 139 152 160 187 174 169 172 174 179 204 205 202 209 208 204 201 208 211 214 222 225 222 224 236 242 237 238 241 243 245 246 246 252 263
162 167 357 323 348 332 314 326 356 108 90 127 165 158 147 148 153 165 156 173 171 180 181 182 190 193 203 208 192 208 211 210 220 221 226 213 221 224 229 239 251 240 249 254 251 259 251 252 257
153 59 55 50 350 344 8 77 95 86 114 125 127 132 107 108 145 152 174 160 127 181 183 181 186 188 190 185 183 201 205 226 230 234 231 220 217 224 229 232 236 247 257 255 262 263 257 256 256
135 46 33 64 0 313 119 96 94 108 115 122 112 102 110 122 112 133 155 134 149 160 185 175 191 192 191 181 192 194 198 210 222 221 235 240 227 220 222 227 237 249 260 255 256 261 269 272 261
66 57 101 140 99 114 99 85 89 87 81 80 100 115 120 106 76 142 141 169 173 174 173 184 189 207 210 193 202 203 213 212 216 222 217 224 234 238 233 245 250 252 262 260 253 258 269 262 263
84 115 127 128 128 121 108 90 82 99 91 91 99 102 108 128 101 104 125 164 159 166 179 188 190 193 200 188 193 198 187 189 185 193 208 221 225 230 234 232 230 240 254 243 242 243 259 255 250
95 128 110 115 126 126 120 99 94 83 110 105 97 104 111 105 96 105 106 120 131 140 151 154 160 170 180 191 172 186 195 190 199 203 210 212 224 254 252 251 257 284 293 271 267 278 276 281 277
78 115 128 111 129 141 124 109 103 93 105 112 116 115 90 105 104 106 109 103 101 107 113 117 119 141 153 174 182 194 247 332 4 4 348 311 243 236 241 249 252 257 257 254 255 260 261 261 260